sat.trackr.live / text

‹ back to catalog

STARLINK-11730 [DTC]

NORAD 64074 · 2025-107L

PAYLOAD ACTIVE UNKNOWN

§ Identity

Operator
Country
US
Launch date
2025-05-21
Launch site
AFETR
Launch vehicle
Mass (kg)
RCS (m²)

Purposes: comms

External: N2YO · Heavens-Above · Gunter

§ Orbital elements

Epoch: 2026-09-19T08:36:02.790432Z

Period
91.67 min
Inclination
42.9997°
Eccentricity
0.0002411
Mean motion
15.70841630 rev/d
Perigee alt
354.9 km
Apogee alt
358.1 km
Semi-major
6,734.6 km
B*
9.4403e-4
RAAN
11.1691°
Arg perigee
285.2763°
Mean anomaly
74.7838°
Rev number
7,775

§ Raw data

STARLINK-11730 [DTC]1 64074U 25107L   26262.35836563  .00122500  00000+0  94403-3 0  99952 64074  42.9997  11.1691 0002411 285.2763  74.7838 15.70841630 77751

JSON: /api/v1/satellites/64074 · /tle

For live sub-satellite position, see the globe view (requires WebGL).

§ Visibility from observer

Set your observer location to see the next 7 days of passes ≥ 10°. The values pass through the URL so the page stays shareable.

No JS? Fill the form by hand. The geolocation button needs JavaScript.